This demonstration page uses our WeatherBlox Daily Observations layout. Learn more.

Left ArrowRight Arrow

Hourly Observations for December 15, 2015

Temp ( °F °C ) Dew Point ( °F °C ) Humidity (%) Winds ( mph kmh ) Pressure ( in mb ) Visibility ( mi km ) Precip ( " mm )
12:53 am 00:53 Clear 50 10 47 8.3 89 89 SW 5 7 29.86 1011 10 16 0.00 0.00
1:53 am 01:53 Clear 49 9.4 47 8.3 93 93 SW 3 6 29.86 1011 10 16 0.00 0.00
2:53 am 02:53 Clear with Mist and Fog 47 8.3 44 6.7 90 90 Calm 29.88 1012 2 3 0.00 0.00
2:57 am 02:57 Mostly Cloudy with Mist and Fog 47 8.3 44 6.7 90 90 Calm 29.91 1013 1 2 0.00 0.00
3:03 am 03:03 Mostly Cloudy with Fog 46 8 45 7 93 93 Calm 29.91 1013 1 1 0.00 0.00
3:28 am 03:28 Mostly Cloudy with Mist and Fog 46 7.8 43 6.1 89 89 Calm 29.91 1013 1 2 0.00 0.00
3:31 am 03:31 Partly Cloudy with Mist and Fog 46 7.8 43 6.1 89 89 Calm 29.91 1013 2 3 0.00 0.00
3:38 am 03:38 Mostly Clear 46 8 45 7 93 93 Calm 29.91 1013 9 14 0.00 0.00
3:53 am 03:53 Clear 46 7.8 44 6.7 93 93 Calm 29.89 1012 10 16 0.00 0.00
4:27 am 04:27 Clear with Mist and Fog 44 6.7 42 5.6 93 93 Calm 29.94 1014 2 2 0.00 0.00
4:29 am 04:29 Mostly Cloudy with Mist and Fog 44 6.7 42 5.6 93 93 Calm 29.91 1013 1 2 0.00 0.00
4:33 am 04:33 Mostly Cloudy with Fog 44 6.7 42 5.6 93 93 Calm 29.91 1013 1 1 0.00 0.00
4:46 am 04:46 Mostly Cloudy with Mist and Fog 45 7 43 6 93 93 Calm 29.91 1013 1 2 0.00 0.00
4:50 am 04:50 Mostly Clear with Mist and Fog 45 7 43 6 93 93 Calm 29.91 1013 3 4 0.00 0.00
4:53 am 04:53 Mostly Clear 45 7.2 43 6.1 93 93 Calm 29.88 1012 10 16 0.00 0.00
5:53 am 05:53 Clear 45 7.2 42 5.6 90 90 Calm 29.89 1012 10 16 0.00 0.00
6:53 am 06:53 Clear 47 8.3 43 6.1 86 86 Calm 29.90 1013 10 16 0.00 0.00
7:53 am 07:53 Sunny 48 8.9 44 6.7 86 86 Calm 29.92 1013 10 16 0.00 0.00
8:53 am 08:53 Sunny 52 11.1 46 7.8 80 80 N 5 7 29.93 1014 10 16 0.00 0.00
9:53 am 09:53 Sunny 57 13.9 46 7.8 67 67 N 6 9 29.95 1014 10 16 0.00 0.00
10:53 am 10:53 Sunny 61 16.1 45 7.2 56 56 N 9 15 29.94 1014 10 16 0.00 0.00
11:53 am 11:53 Sunny 65 18.3 45 7.2 49 49 NW 6 9 29.92 1013 10 16 0.00 0.00
12:53 pm 12:53 Sunny 68 20 45 7.2 44 44 Calm 29.90 1013 10 16 0.00 0.00
1:53 pm 13:53 Sunny 70 21.1 46 7.8 42 42 WNW 7 11 29.89 1012 10 16 0.00 0.00
2:53 pm 14:53 Sunny 72 22.2 45 7.2 38 38 NNW 5 7 29.88 1012 10 16 0.00 0.00
3:53 pm 15:53 Sunny 72 22.2 46 7.8 40 40 NNW 5 7 29.88 1012 10 16 0.00 0.00
4:53 pm 16:53 Sunny 69 20.6 46 7.8 44 44 WNW 5 7 29.89 1012 10 16 0.00 0.00
5:53 pm 17:53 Clear 62 16.7 47 8.3 58 58 S 3 6 29.90 1012 10 16 0.00 0.00
6:53 pm 18:53 Clear 57 13.9 47 8.3 69 69 Calm 29.90 1013 10 16 0.00 0.00
7:53 pm 19:53 Clear 54 12.2 47 8.3 77 77 Calm 29.91 1013 10 16 0.00 0.00
8:53 pm 20:53 Clear 50 10 46 7.8 86 86 Calm 29.92 1013 10 16 0.00 0.00
9:53 pm 21:53 Clear 49 9.4 46 7.8 90 90 Calm 29.93 1014 10 16 0.00 0.00
10:53 pm 22:53 Clear 47 8.3 44 6.7 90 90 Calm 29.94 1014 10 16 0.00 0.00
11:53 pm 23:53 Clear 46 7.8 43 6.1 89 89 Calm 29.94 1014 10 16 0.00 0.00

Powered by AerisWeather